Супра

Россия / Ханты-Мансийский автономный округ - Югра     60°57′58″N   64°41′34″E
темп.,
°C
ветер,
м/с
пор.,
м/с
влажн.,
%
обл.,
%
осадки,
мм/ч
давл.,
гПа
погр.,
м
26 февраля, пт
пт2623:00−27ссв1110066 0.0 102719
02:00−29зюз011000 0.0 102619
05:00−29з111000 0.0 102719
08:00−29юз1110061 0.0 102719
11:00−23ююз129531 0.0 1027156
14:00−20ю239583 0.0 1027249
17:00−22ю239777 0.0 102660
20:00−25ююв23994 0.0 102623
27 февраля, сб
сб2723:00−25ююв2310038 0.0 102639
02:00−25ююв239992 0.0 102542
05:00−26ююв239989 0.0 102552
08:00−27юв239984 0.0 102464
11:00−23юв359681 0.0 1025229
14:00−21юв369670 0.0 1024267
17:00−22вюв379669 0.0 1024275
20:00−26вюв389834 0.0 1023146
28 февраля, вс
вс2823:00−28вюв339928 0.0 102378
02:00−28вюв339931 0.0 102266
05:00−29в369917 0.0 102295
08:00−29в36980 0.0 1021115
11:00−24в369410 0.0 1021230
14:00−21в369414 0.0 1019272
17:00−20всв379543 0.0 1019282
20:00−23всв369875 0.0 1019117
1 марта, пн
пн123:00−25всв239970 0.0 101955
02:00−25св239934 0.0 101926
05:00−26св239921 0.0 101921
08:00−27св22990 0.0 101919
11:00−21в11940 0.0 1018142
14:00−17ююз119055 0.0 1017216
17:00−18юз229546 0.0 101626
20:00−22ююз22960 0.0 101520
2 марта, вт
вт223:00−22ююз35992 0.0 101491
02:00−21ю389977 0.0 1011165
05:00−20ю399886 0.0 1009235
08:00−19ю499597 0.0 1006260
11:00−16ю499498 0.0 1004326
14:00−13ю5994100 0.4 1002512
17:00−10ю51092100 0.8 1001717
20:00−10ююз41093100 0.2 1000563